COSMOS 2588

Satellite information

Favourite Embed

Satellite Type and Status

PAYLOADIN ORBIT

Key statistics

Satellite COSMOS 2588 at a glance.

Uptime

204

Days in orbit

Revolutions

≈ 15.3

Per day

Orbit

LEO

Low Earth Orbit

Inclination

73.0

Latest

Satellite identification and parameters

Extended collection of information and parameters for COSMOS 2588.

Object identification

Identified? True

Debris? False

Object name: COSMOS 2588

International designator: 2025-109A

Object number (NORAD): 64095

Object ID (CCSDS): 64095

Country: COMMONWEALTH OF INDEPENDENT STATES (CIS)

Current information (Y/N): Y

RCS size: LARGE

Orbital parameters

Period: 94.178 minutes

Inclination: 72.9725 deg

SMA: 6856.89 km

Apoapsis: 486.499 km

Periapsis: 471.011 km

RAAN: 270.6264 deg

Eccentricy: 0.0011294

Argument of periapsis: 174.7381 deg

Mean anomaly: 185.3935 deg

Mean motion: 15.29015749 rev/day

Mean motion (dot): 0.00018396 rev/day2

B* drag term: 0.00065201 1/REarth

Two-line elements (TLE)

Creation date: Dec. 12, 2025, 8:06 p.m.

Reference frame: TEME

Reference center: EARTH

Epoch: Dec. 12, 2025, 5:33 p.m. UTC

TLE line 0: 0 COSMOS 2588

TLE line 1: 1 64095U 25109A 25346.73130059 .00018396 00000-0 65201-3 0 9993

TLE line 2: 2 64095 72.9725 270.6264 0011294 174.7381 185.3935 15.29015749 31116

Live tracking on map

Real-time ground track for satellite COSMOS 2588.

In-orbit conjunctions

There are no conjunctions computed for COSMOS 2588, at the moment. Check back to stay up to date, as we update our databases every day.

Go to all conjunctions

Associated space launch

Unknown classified payload for the Russian military.

COSMOS 2588 was lifted into orbit during the mission ‘Soyuz 2.1b/Fregat-M | Kosmos 2588’, on board a Soyuz 2.1b/Fregat-M space rocket.

The launch took place on May 23, 2025, 8:36 a.m. from 43/4 (43R).

For more information about the launch, click the button.

Launch to space Soyuz 2.1b/Fregat-M | Kosmos 2588
Soyuz 2.1b/Fregat-M | Kosmos 2588

Agency: N/A

Status: Launch Successful

Launch date: May 23, 2025, 8:36 a.m. UTC

Rocket: Soyuz 2.1b/Fregat-M

Launch pad: 43/4 (43R)

Location: Plesetsk Cosmodrome, Russian Federation

...

Latest news about this satellite

News about space launch
Launch Roundup: SpaceX to start new Starlink shell; China, Russia to launch unknown payloads

This week, SpaceX will begin building a new shell for its Starlink constellation, launching from… The post Launch Roundup: SpaceX to start new Starlink shell; China, Russia to launch unknown payloads appeared first on NASASpaceFlight.com.


Newsletter sign-up

Weekly statistics, charts and insights to help you stay on top of the space industry.